Time,TemperatureF,DewpointF,PressureIn,WindDirection,WindDirectionDegrees,WindSpeedMPH,WindSpeedGustMPH,Humidity,HourlyPrecipIn,Conditions,Clouds,dailyrainin,SoftwareType,DateUTC
2013-01-14 00:01:00,44.4,44.4,29.99,SSE,165,0.0,0.0,100,0.00,,,0.00,WeatherDisplay:10.37,2013-01-14 05:01:00,
2013-01-14 00:03:00,44.6,44.6,29.99,SSE,165,0.0,0.0,100,0.00,,,0.00,WeatherDisplay:10.37,2013-01-14 05:03:00,
2013-01-14 00:06:00,44.5,44.5,29.98,SSE,165,0.0,0.0,100,0.00,,,0.00,WeatherDisplay:10.37,2013-01-14 05:06:00,
2013-01-14 00:08:00,44.6,44.6,29.98,SSE,165,0.0,0.0,100,0.00,,,0.00,WeatherDisplay:10.37,2013-01-14 05:08:00,
2013-01-14 00:13:00,44.3,44.3,29.99,SSE,165,0.0,0.0,100,0.00,,,0.00,WeatherDisplay:10.37,2013-01-14 05:13:00,
2013-01-14 00:18:00,44.5,44.5,29.99,SSE,165,0.0,0.0,100,0.00,,,0.00,WeatherDisplay:10.37,2013-01-14 05:18:00,
2013-01-14 00:23:00,44.1,44.1,29.99,SSE,165,0.0,0.0,100,0.00,,,0.00,WeatherDisplay:10.37,2013-01-14 05:23:00,
2013-01-14 00:28:00,44.4,44.4,29.99,SSE,165,0.0,0.0,100,0.00,,,0.00,WeatherDisplay:10.37,2013-01-14 05:28:00,
2013-01-14 00:33:00,44.2,44.2,29.99,SSE,165,0.0,0.0,100,0.00,,,0.00,WeatherDisplay:10.37,2013-01-14 05:33:00,
2013-01-14 00:38:00,44.2,44.2,29.99,SSE,165,0.0,0.0,100,0.00,,,0.00,WeatherDisplay:10.37,2013-01-14 05:38:00,
2013-01-14 00:43:00,44.1,44.1,29.99,SW,232,4.0,4.0,100,0.00,,,0.00,WeatherDisplay:10.37,2013-01-14 05:43:00,
2013-01-14 00:48:00,44.0,44.0,29.99,WSW,239,5.8,5.8,100,0.00,OVC,,0.00,WeatherDisplay:10.37,2013-01-14 05:48:00,
2013-01-14 00:54:00,44.0,44.0,29.99,WSW,241,9.2,9.2,100,0.00,OVC,,0.00,WeatherDisplay:10.37,2013-01-14 05:54:00,
2013-01-14 00:59:00,44.4,44.4,29.99,WSW,243,3.5,3.5,100,0.00,OVC,,0.00,WeatherDisplay:10.37,2013-01-14 05:59:00,
2013-01-14 01:04:00,44.4,44.4,29.99,SW,219,6.9,6.9,100,0.00,OVC,,0.00,WeatherDisplay:10.37,2013-01-14 06:04:00,
2013-01-14 01:09:00,44.6,44.6,29.99,SW,224,1.1,0.0,100,0.00,OVC,,0.00,WeatherDisplay:10.37,2013-01-14 06:09:00,
2013-01-14 01:14:00,45.2,45.2,29.99,SW,224,0.0,0.0,100,0.00,OVC,,0.00,WeatherDisplay:10.37,2013-01-14 06:14:00,
2013-01-14 01:19:00,45.5,45.5,29.99,SW,224,0.0,0.0,100,0.00,OVC,,0.00,WeatherDisplay:10.37,2013-01-14 06:19:00,
2013-01-14 01:24:00,45.5,45.5,29.99,SW,224,0.0,0.0,100,0.00,OVC,,0.00,WeatherDisplay:10.37,2013-01-14 06:24:00,
2013-01-14 01:29:00,45.6,45.6,29.99,SW,224,0.0,0.0,100,0.00,OVC,,0.00,WeatherDisplay:10.37,2013-01-14 06:29:00,
2013-01-14 01:34:00,45.7,45.7,29.99,SW,224,0.0,0.0,100,0.00,OVC,,0.00,WeatherDisplay:10.37,2013-01-14 06:34:00,
2013-01-14 01:40:00,45.7,45.7,29.99,SW,224,0.0,0.0,100,0.00,OVC,,0.00,WeatherDisplay:10.37,2013-01-14 06:40:00,
2013-01-14 01:45:00,45.7,45.7,29.99,SW,224,0.0,0.0,100,0.00,OVC,,0.00,WeatherDisplay:10.37,2013-01-14 06:45:00,
2013-01-14 01:50:00,45.6,45.6,30.00,SW,224,0.0,0.0,100,0.00,OVC,,0.00,WeatherDisplay:10.37,2013-01-14 06:50:00,
2013-01-14 01:55:00,45.6,45.6,30.00,SW,224,0.0,0.0,100,0.00,OVC,,0.00,WeatherDisplay:10.37,2013-01-14 06:55:00,
2013-01-14 02:00:00,45.6,45.6,30.00,SW,224,0.0,0.0,100,0.00,OVC,,0.00,WeatherDisplay:10.37,2013-01-14 07:00:00,
2013-01-14 02:05:00,45.6,45.6,30.00,SW,224,0.0,0.0,100,0.00,OVC,,0.00,WeatherDisplay:10.37,2013-01-14 07:05:00,
2013-01-14 02:10:00,45.7,45.7,29.99,SW,224,0.0,0.0,100,0.00,OVC,,0.00,WeatherDisplay:10.37,2013-01-14 07:10:00,
2013-01-14 02:15:00,45.4,45.4,30.00,SW,224,0.0,0.0,100,0.00,OVC,,0.00,WeatherDisplay:10.37,2013-01-14 07:15:00,
2013-01-14 02:20:00,45.1,45.1,30.00,SW,224,0.0,0.0,100,0.00,OVC,,0.00,WeatherDisplay:10.37,2013-01-14 07:20:00,
2013-01-14 02:25:00,45.2,45.2,30.00,SW,224,0.0,0.0,100,0.00,OVC,,0.00,WeatherDisplay:10.37,2013-01-14 07:25:00,
2013-01-14 02:30:00,44.9,44.9,30.00,SW,224,0.0,0.0,100,0.00,OVC,,0.00,WeatherDisplay:10.37,2013-01-14 07:30:00,
2013-01-14 02:35:00,45.2,45.2,30.00,SW,224,0.0,0.0,100,0.00,OVC,,0.00,WeatherDisplay:10.37,2013-01-14 07:35:00,
2013-01-14 02:40:00,45.3,45.3,30.00,SW,224,0.0,0.0,100,0.00,OVC,,0.00,WeatherDisplay:10.37,2013-01-14 07:40:00,
2013-01-14 02:46:00,45.2,45.2,29.99,SW,224,0.0,0.0,100,0.00,OVC,,0.00,WeatherDisplay:10.37,2013-01-14 07:46:00,
2013-01-14 02:51:00,45.3,45.3,29.99,SW,224,0.0,0.0,100,0.00,OVC,,0.00,WeatherDisplay:10.37,2013-01-14 07:51:00,
2013-01-14 02:56:00,45.2,45.2,29.99,SW,224,0.0,0.0,100,0.00,OVC,,0.00,WeatherDisplay:10.37,2013-01-14 07:56:00,
2013-01-14 03:01:00,44.8,44.8,29.98,SW,224,0.0,0.0,100,0.00,OVC,,0.00,WeatherDisplay:10.37,2013-01-14 08:01:00,
2013-01-14 03:06:00,44.9,44.9,29.99,SW,224,0.0,0.0,100,0.00,OVC,,0.00,WeatherDisplay:10.37,2013-01-14 08:06:00,
2013-01-14 03:11:00,45.1,45.1,30.00,SW,224,0.0,0.0,100,0.00,OVC,,0.00,WeatherDisplay:10.37,2013-01-14 08:11:00,
2013-01-14 03:16:00,45.0,45.0,29.99,SW,224,0.0,0.0,100,0.00,OVC,,0.00,WeatherDisplay:10.37,2013-01-14 08:16:00,
2013-01-14 03:21:00,44.8,44.8,29.99,SW,224,0.0,0.0,100,0.00,OVC,,0.00,WeatherDisplay:10.37,2013-01-14 08:21:00,
2013-01-14 03:26:00,45.0,45.0,29.99,SW,224,0.0,0.0,100,0.00,OVC,,0.00,WeatherDisplay:10.37,2013-01-14 08:26:00,
2013-01-14 03:31:00,45.0,45.0,29.99,SW,224,0.0,0.0,100,0.00,OVC,,0.00,WeatherDisplay:10.37,2013-01-14 08:31:00,
2013-01-14 03:36:00,44.8,44.8,29.99,SW,224,0.0,0.0,100,0.00,OVC,,0.00,WeatherDisplay:10.37,2013-01-14 08:36:00,
2013-01-14 03:41:00,44.8,44.8,29.99,SW,224,0.0,0.0,100,0.00,OVC,,0.00,WeatherDisplay:10.37,2013-01-14 08:41:00,
2013-01-14 03:46:00,44.5,44.5,30.00,SW,224,0.0,0.0,100,0.00,OVC,,0.00,WeatherDisplay:10.37,2013-01-14 08:46:00,
2013-01-14 03:51:00,44.0,44.0,29.99,SW,224,0.0,0.0,100,0.00,OVC,,0.00,WeatherDisplay:10.37,2013-01-14 08:51:00,
2013-01-14 03:56:00,44.4,44.4,29.99,SW,224,0.0,0.0,100,0.00,OVC,,0.00,WeatherDisplay:10.37,2013-01-14 08:56:00,
2013-01-14 04:01:00,44.5,44.5,29.99,SW,224,0.0,0.0,100,0.00,OVC,,0.00,WeatherDisplay:10.37,2013-01-14 09:01:00,
2013-01-14 04:06:00,44.2,44.2,29.99,SW,224,0.0,0.0,100,0.00,OVC,,0.00,WeatherDisplay:10.37,2013-01-14 09:06:00,
2013-01-14 04:11:00,44.3,44.3,29.98,SW,224,0.0,0.0,100,0.00,OVC,,0.00,WeatherDisplay:10.37,2013-01-14 09:11:00,
2013-01-14 04:16:00,44.0,44.0,29.99,SW,224,0.0,0.0,100,0.00,OVC,,0.00,WeatherDisplay:10.37,2013-01-14 09:16:00,
2013-01-14 04:21:00,44.0,44.0,29.99,SW,224,0.0,0.0,100,0.00,OVC,,0.00,WeatherDisplay:10.37,2013-01-14 09:21:00,
2013-01-14 04:27:00,44.2,44.2,29.99,SW,224,0.0,0.0,100,0.00,OVC,,0.00,WeatherDisplay:10.37,2013-01-14 09:27:00,
2013-01-14 04:32:00,44.1,44.1,29.99,SW,224,0.0,0.0,100,0.00,,,0.00,WeatherDisplay:10.37,2013-01-14 09:32:00,
2013-01-14 04:37:00,44.2,44.2,29.98,SW,224,0.0,0.0,100,0.00,,,0.00,WeatherDisplay:10.37,2013-01-14 09:37:00,
2013-01-14 04:42:00,44.1,44.1,29.98,SW,224,0.0,0.0,100,0.00,,,0.00,WeatherDisplay:10.37,2013-01-14 09:42:00,
2013-01-14 04:47:00,44.5,44.5,29.98,SW,224,0.0,0.0,100,0.00,,,0.00,WeatherDisplay:10.37,2013-01-14 09:47:00,
2013-01-14 04:52:00,44.8,44.8,29.98,SW,224,0.0,0.0,100,0.00,,,0.00,WeatherDisplay:10.37,2013-01-14 09:52:00,
2013-01-14 04:57:00,44.9,44.9,29.98,SW,224,0.0,0.0,100,0.00,,,0.00,WeatherDisplay:10.37,2013-01-14 09:57:00,
2013-01-14 05:02:00,45.0,45.0,29.97,SW,224,0.0,0.0,100,0.00,,,0.00,WeatherDisplay:10.37,2013-01-14 10:02:00,
2013-01-14 05:07:00,44.6,44.6,29.97,SW,224,0.0,0.0,100,0.00,,,0.00,WeatherDisplay:10.37,2013-01-14 10:07:00,
2013-01-14 05:12:00,44.8,44.8,29.97,SW,224,0.0,0.0,100,0.00,,,0.00,WeatherDisplay:10.37,2013-01-14 10:12:00,
2013-01-14 05:17:00,44.9,44.9,29.97,SSE,168,2.3,2.3,100,0.00,OVC,,0.00,WeatherDisplay:10.37,2013-01-14 10:17:00,
2013-01-14 05:22:00,45.3,45.3,29.96,SSE,168,0.0,0.0,100,0.00,OVC,,0.00,WeatherDisplay:10.37,2013-01-14 10:22:00,
2013-01-14 05:27:00,45.3,45.3,29.96,SSE,168,0.0,0.0,100,0.00,OVC,,0.00,WeatherDisplay:10.37,2013-01-14 10:27:00,
2013-01-14 05:33:00,45.4,45.4,29.95,SSE,168,0.0,0.0,100,0.00,OVC,,0.00,WeatherDisplay:10.37,2013-01-14 10:33:00,
2013-01-14 05:38:00,45.4,45.4,29.95,SSE,168,0.0,0.0,100,0.00,OVC,,0.00,WeatherDisplay:10.37,2013-01-14 10:38:00,
2013-01-14 05:43:00,45.1,45.1,29.94,ESE,123,4.6,4.6,100,0.00,OVC,,0.00,WeatherDisplay:10.37,2013-01-14 10:43:00,
2013-01-14 05:48:00,45.2,45.2,29.93,South,182,9.2,9.2,100,0.00,OVC,,0.00,WeatherDisplay:10.37,2013-01-14 10:48:00,
2013-01-14 05:53:00,45.4,45.4,29.93,South,179,8.1,8.1,100,0.00,OVC,,0.00,WeatherDisplay:10.37,2013-01-14 10:53:00,
2013-01-14 05:58:00,45.3,45.3,29.89,SSE,167,9.2,9.2,100,0.00,OVC,,0.00,WeatherDisplay:10.37,2013-01-14 10:58:00,
2013-01-14 06:03:00,45.5,45.5,29.90,ESE,113,8.1,8.1,100,0.00,OVC,,0.00,WeatherDisplay:10.37,2013-01-14 11:03:00,
2013-01-14 06:08:00,45.5,45.5,29.91,North,352,6.9,6.9,100,0.00,OVC,,0.00,WeatherDisplay:10.37,2013-01-14 11:08:00,
2013-01-14 06:13:00,45.8,45.8,29.95,WNW,284,6.3,6.3,100,0.00,OVC,,0.00,WeatherDisplay:10.37,2013-01-14 11:13:00,
2013-01-14 06:18:00,45.6,45.6,29.97,NW,305,1.1,0.0,100,0.00,OVC,,0.00,WeatherDisplay:10.37,2013-01-14 11:18:00,
2013-01-14 06:23:00,45.5,45.5,29.96,NW,305,0.0,0.0,100,0.00,OVC,,0.00,WeatherDisplay:10.37,2013-01-14 11:23:00,
2013-01-14 06:28:00,45.7,45.7,29.95,NW,305,0.0,0.0,100,0.00,OVC,,0.00,WeatherDisplay:10.37,2013-01-14 11:28:00,
2013-01-14 06:33:00,45.7,45.7,29.92,SSE,147,1.1,1.1,100,0.00,OVC,,0.00,WeatherDisplay:10.37,2013-01-14 11:33:00,
2013-01-14 06:38:00,45.7,45.7,29.95,ESE,110,0.0,0.0,100,0.00,OVC,,0.00,WeatherDisplay:10.37,2013-01-14 11:38:00,
2013-01-14 06:43:00,45.6,45.6,29.97,ESE,110,0.0,0.0,100,0.00,OVC,,0.00,WeatherDisplay:10.37,2013-01-14 11:43:00,
2013-01-14 06:48:00,45.9,45.9,29.98,NW,323,0.0,0.0,100,0.00,OVC,,0.00,WeatherDisplay:10.37,2013-01-14 11:48:00,
2013-01-14 06:53:00,46.3,46.3,29.98,NW,323,0.0,0.0,100,0.00,OVC,,0.00,WeatherDisplay:10.37,2013-01-14 11:53:00,
2013-01-14 06:58:00,46.4,46.4,30.00,NW,323,0.0,0.0,100,0.00,OVC,,0.00,WeatherDisplay:10.37,2013-01-14 11:58:00,
2013-01-14 07:03:00,46.6,46.6,29.99,NW,323,0.0,0.0,100,0.00,OVC,,0.00,WeatherDisplay:10.37,2013-01-14 12:03:00,
2013-01-14 07:08:00,46.2,46.2,29.98,NW,323,0.0,0.0,100,0.00,OVC,,0.00,WeatherDisplay:10.37,2013-01-14 12:08:00,
2013-01-14 07:13:00,46.1,46.1,29.98,NW,323,0.0,0.0,100,0.00,OVC,,0.00,WeatherDisplay:10.37,2013-01-14 12:13:00,
2013-01-14 07:18:00,46.3,46.3,29.98,NW,323,0.0,0.0,100,0.00,OVC,,0.00,WeatherDisplay:10.37,2013-01-14 12:18:00,
2013-01-14 07:23:00,46.5,46.5,29.98,NW,323,0.0,0.0,100,0.00,OVC,,0.00,WeatherDisplay:10.37,2013-01-14 12:23:00,
2013-01-14 07:28:00,46.8,46.8,29.98,NW,323,0.0,0.0,100,0.00,OVC,,0.00,WeatherDisplay:10.37,2013-01-14 12:28:00,
2013-01-14 07:33:00,47.1,47.1,29.98,NW,323,0.0,0.0,100,0.00,OVC,,0.00,WeatherDisplay:10.37,2013-01-14 12:33:00,
2013-01-14 07:38:00,47.3,47.3,29.99,NW,323,0.0,0.0,100,0.00,OVC,,0.00,WeatherDisplay:10.37,2013-01-14 12:38:00,
2013-01-14 07:43:00,47.3,47.3,29.99,NW,323,0.0,0.0,100,0.00,OVC,,0.00,WeatherDisplay:10.37,2013-01-14 12:43:00,
2013-01-14 07:48:00,47.3,47.3,29.99,NW,323,0.0,0.0,100,0.00,OVC,,0.00,WeatherDisplay:10.37,2013-01-14 12:48:00,
2013-01-14 07:53:00,47.4,47.4,30.00,NW,323,0.0,0.0,100,0.00,OVC,,0.00,WeatherDisplay:10.37,2013-01-14 12:53:00,
2013-01-14 07:58:00,47.5,47.5,30.00,NW,323,0.0,0.0,100,0.00,OVC,,0.00,WeatherDisplay:10.37,2013-01-14 12:58:00,
2013-01-14 08:03:00,47.6,47.6,30.00,NW,323,0.0,0.0,100,0.00,OVC,,0.00,WeatherDisplay:10.37,2013-01-14 13:03:00,
2013-01-14 08:08:00,47.7,47.7,30.00,NW,323,0.0,0.0,100,0.00,OVC,,0.00,WeatherDisplay:10.37,2013-01-14 13:08:00,
2013-01-14 08:13:00,47.8,47.8,30.01,NW,323,0.0,0.0,100,0.00,OVC,,0.00,WeatherDisplay:10.37,2013-01-14 13:13:00,
2013-01-14 08:18:00,48.0,48.0,30.01,NW,323,0.0,0.0,100,0.00,OVC,,0.00,WeatherDisplay:10.37,2013-01-14 13:18:00,
2013-01-14 08:24:00,47.8,47.8,30.02,NW,323,0.0,0.0,100,0.00,OVC,,0.00,WeatherDisplay:10.37,2013-01-14 13:24:00,
2013-01-14 08:29:00,47.9,47.9,30.02,NW,323,0.0,0.0,100,0.00,OVC,,0.00,WeatherDisplay:10.37,2013-01-14 13:29:00,
2013-01-14 08:34:00,47.9,47.9,30.02,NW,323,0.0,0.0,100,0.00,OVC,,0.00,WeatherDisplay:10.37,2013-01-14 13:34:00,
2013-01-14 08:39:00,48.0,48.0,30.01,NW,323,0.0,0.0,100,0.00,OVC,,0.00,WeatherDisplay:10.37,2013-01-14 13:39:00,
2013-01-14 08:44:00,47.9,47.9,30.02,NW,323,0.0,0.0,100,0.00,OVC,,0.00,WeatherDisplay:10.37,2013-01-14 13:44:00,
2013-01-14 08:50:00,47.8,47.8,30.02,NW,323,0.0,0.0,100,0.00,OVC,,0.00,WeatherDisplay:10.37,2013-01-14 13:50:00,
2013-01-14 08:55:00,47.8,47.8,30.02,NW,323,0.0,0.0,100,0.00,OVC,,0.00,WeatherDisplay:10.37,2013-01-14 13:55:00,
2013-01-14 09:00:00,48.1,48.1,30.02,NW,323,0.0,0.0,100,0.00,OVC,,0.00,WeatherDisplay:10.37,2013-01-14 14:00:00,
2013-01-14 09:05:00,48.1,48.1,30.01,NW,323,0.0,0.0,100,0.00,OVC,,0.00,WeatherDisplay:10.37,2013-01-14 14:05:00,
2013-01-14 09:10:00,48.4,48.4,30.01,NW,323,0.0,0.0,100,0.00,OVC,,0.00,WeatherDisplay:10.37,2013-01-14 14:10:00,
2013-01-14 09:15:00,48.5,48.5,30.01,NW,323,0.0,0.0,100,0.00,OVC,,0.00,WeatherDisplay:10.37,2013-01-14 14:15:00,
2013-01-14 09:20:00,48.8,48.8,30.02,North,6,1.1,0.0,100,0.00,OVC,,0.00,WeatherDisplay:10.37,2013-01-14 14:20:00,
2013-01-14 09:25:00,49.1,49.1,30.02,West,267,0.0,0.0,100,0.00,OVC,,0.00,WeatherDisplay:10.37,2013-01-14 14:25:00,
2013-01-14 09:30:00,49.0,49.0,30.02,West,267,0.0,0.0,100,0.00,OVC,,0.00,WeatherDisplay:10.37,2013-01-14 14:30:00,
2013-01-14 09:35:00,48.2,48.2,30.02,East,80,4.6,4.6,100,0.00,OVC,,0.00,WeatherDisplay:10.37,2013-01-14 14:35:00,
2013-01-14 09:40:00,48.2,48.2,30.02,East,80,1.1,0.0,100,0.00,OVC,,0.00,WeatherDisplay:10.37,2013-01-14 14:40:00,
2013-01-14 09:45:00,48.4,48.4,30.02,WNW,302,6.9,6.9,100,0.00,OVC,,0.00,WeatherDisplay:10.37,2013-01-14 14:45:00,
2013-01-14 09:50:00,48.7,48.7,30.02,ENE,72,5.8,5.8,100,0.00,OVC,,0.00,WeatherDisplay:10.37,2013-01-14 14:50:00,
2013-01-14 09:55:00,48.8,48.8,30.03,ESE,120,5.8,5.8,100,0.00,OVC,,0.00,WeatherDisplay:10.37,2013-01-14 14:55:00,
2013-01-14 10:00:00,49.0,49.0,30.03,East,100,1.1,0.0,100,0.00,OVC,,0.00,WeatherDisplay:10.37,2013-01-14 15:00:00,
2013-01-14 10:05:00,49.1,49.1,30.03,NNW,335,6.9,6.9,100,0.00,OVC,,0.00,WeatherDisplay:10.37,2013-01-14 15:05:00,
2013-01-14 10:10:00,49.5,49.5,30.04,ENE,71,0.0,0.0,100,0.00,OVC,,0.00,WeatherDisplay:10.37,2013-01-14 15:10:00,
2013-01-14 10:15:00,49.7,49.7,30.04,NE,42,2.3,2.3,100,0.00,OVC,,0.00,WeatherDisplay:10.37,2013-01-14 15:15:00,
2013-01-14 10:20:00,49.8,49.8,30.04,NNE,23,0.0,0.0,100,0.00,OVC,,0.00,WeatherDisplay:10.37,2013-01-14 15:20:00,
2013-01-14 10:25:00,49.8,49.8,30.04,NNE,23,0.0,0.0,100,0.00,OVC,,0.00,WeatherDisplay:10.37,2013-01-14 15:25:00,
2013-01-14 10:30:00,49.9,49.9,30.04,ENE,65,0.0,0.3,100,0.00,OVC,,0.00,WeatherDisplay:10.37,2013-01-14 15:30:00,
2013-01-14 10:35:00,49.9,49.9,30.03,ENE,69,3.5,3.5,100,0.00,OVC,,0.00,WeatherDisplay:10.37,2013-01-14 15:35:00,
2013-01-14 10:40:00,49.9,49.9,30.03,ENE,69,0.0,0.0,100,0.00,OVC,,0.00,WeatherDisplay:10.37,2013-01-14 15:40:00,
2013-01-14 10:45:00,50.0,50.0,30.03,WNW,289,7.1,7.1,100,0.00,OVC,,0.00,WeatherDisplay:10.37,2013-01-14 15:45:00,
2013-01-14 10:50:00,50.0,50.0,30.03,NNW,343,5.8,5.8,100,0.00,SCT,,0.00,WeatherDisplay:10.37,2013-01-14 15:50:00,
2013-01-14 10:55:00,50.1,50.1,30.03,NW,305,3.5,3.5,100,0.00,SCT,,0.00,WeatherDisplay:10.37,2013-01-14 15:55:00,
2013-01-14 11:00:00,50.1,50.1,30.03,WNW,288,2.6,2.6,100,0.00,SCT,,0.00,WeatherDisplay:10.37,2013-01-14 16:00:00,
2013-01-14 11:05:00,50.2,50.2,30.03,WNW,282,6.9,6.9,100,0.00,SCT,,0.00,WeatherDisplay:10.37,2013-01-14 16:05:00,
2013-01-14 11:10:00,50.1,50.1,30.03,NW,325,5.1,5.1,100,0.00,SCT,,0.00,WeatherDisplay:10.37,2013-01-14 16:10:00,
2013-01-14 11:15:00,50.1,50.1,30.03,West,281,5.8,5.8,100,0.00,SCT,,0.00,WeatherDisplay:10.37,2013-01-14 16:15:00,
2013-01-14 11:20:00,50.2,50.2,30.03,NNW,346,9.2,9.2,100,0.00,SCT,,0.00,WeatherDisplay:10.37,2013-01-14 16:20:00,
2013-01-14 11:25:00,50.3,50.3,30.03,North,349,4.6,4.6,100,0.00,SCT,,0.00,WeatherDisplay:10.37,2013-01-14 16:25:00,
2013-01-14 11:30:00,50.5,50.5,30.04,NNW,344,9.2,9.2,100,0.00,SCT,,0.00,WeatherDisplay:10.37,2013-01-14 16:30:00,
2013-01-14 11:35:00,50.5,50.5,30.04,NW,326,9.2,9.2,100,0.00,SCT,,0.00,WeatherDisplay:10.37,2013-01-14 16:35:00,
2013-01-14 11:40:00,50.3,50.3,30.04,North,11,10.4,10.4,100,0.00,SCT,,0.00,WeatherDisplay:10.37,2013-01-14 16:40:00,
2013-01-14 11:45:00,49.9,49.9,30.05,NNW,346,8.1,8.1,100,0.00,SCT,,0.00,WeatherDisplay:10.37,2013-01-14 16:45:00,
2013-01-14 11:50:00,49.9,49.9,30.05,NNE,27,3.5,3.5,100,0.00,SCT,,0.00,WeatherDisplay:10.37,2013-01-14 16:50:00,
2013-01-14 11:55:00,49.7,49.7,30.05,WNW,291,10.4,10.4,100,0.00,SCT,,0.00,WeatherDisplay:10.37,2013-01-14 16:55:00,
2013-01-14 12:00:00,49.5,49.5,30.06,NW,311,5.8,5.8,100,0.00,SCT,,0.00,WeatherDisplay:10.37,2013-01-14 17:00:00,
2013-01-14 12:05:00,49.5,49.5,30.06,North,350,5.8,5.8,100,0.00,SCT,,0.00,WeatherDisplay:10.37,2013-01-14 17:05:00,
2013-01-14 12:11:00,49.4,49.4,30.06,NW,312,5.8,5.8,100,0.00,SCT,,0.00,WeatherDisplay:10.37,2013-01-14 17:11:00,
2013-01-14 12:16:00,49.6,49.6,30.06,WNW,295,4.6,4.6,100,0.00,OVC,,0.00,WeatherDisplay:10.37,2013-01-14 17:16:00,
2013-01-14 12:21:00,49.5,49.5,30.06,NW,315,9.2,9.2,100,0.00,OVC,,0.00,WeatherDisplay:10.37,2013-01-14 17:21:00,
2013-01-14 12:26:00,49.5,49.5,30.06,WNW,291,2.3,2.3,100,0.00,OVC,,0.00,WeatherDisplay:10.37,2013-01-14 17:26:00,
2013-01-14 12:31:00,49.5,49.5,30.06,North,7,2.3,2.3,100,0.00,OVC,,0.00,WeatherDisplay:10.37,2013-01-14 17:31:00,
2013-01-14 12:36:00,49.6,49.6,30.06,NNW,343,3.5,3.5,100,0.00,BKN,,0.00,WeatherDisplay:10.37,2013-01-14 17:36:00,
2013-01-14 12:41:00,49.5,49.5,30.05,NNW,332,8.1,8.1,100,0.00,BKN,,0.00,WeatherDisplay:10.37,2013-01-14 17:41:00,
2013-01-14 12:46:00,49.2,49.2,30.06,North,7,6.9,6.9,100,0.00,BKN,,0.00,WeatherDisplay:10.37,2013-01-14 17:46:00,
2013-01-14 12:51:00,49.0,49.0,30.06,North,360,5.8,5.8,100,0.00,BKN,,0.00,WeatherDisplay:10.37,2013-01-14 17:51:00,
2013-01-14 12:57:00,48.7,48.7,30.07,North,4,9.2,9.2,100,0.00,BKN,,0.00,WeatherDisplay:10.37,2013-01-14 17:57:00,
2013-01-14 13:02:00,47.9,47.9,30.07,NE,34,8.1,8.1,100,0.00,OVC,,0.00,WeatherDisplay:10.37,2013-01-14 18:02:00,
2013-01-14 13:07:00,47.6,47.6,30.07,ENE,61,6.9,6.9,100,0.00,OVC,,0.00,WeatherDisplay:10.37,2013-01-14 18:07:00,
2013-01-14 13:12:00,47.2,47.2,30.07,NNE,25,9.2,9.2,100,0.00,OVC,,0.00,WeatherDisplay:10.37,2013-01-14 18:12:00,
2013-01-14 13:17:00,47.4,47.4,30.07,North,7,5.8,5.8,100,0.00,OVC,,0.00,WeatherDisplay:10.37,2013-01-14 18:17:00,
2013-01-14 13:22:00,47.4,47.4,30.08,NNE,16,4.6,4.8,100,0.00,OVC,,0.00,WeatherDisplay:10.37,2013-01-14 18:22:00,
2013-01-14 13:27:00,47.3,47.3,30.08,ENE,68,8.1,8.1,100,0.00,OVC,,0.00,WeatherDisplay:10.37,2013-01-14 18:27:00,
2013-01-14 13:32:00,47.4,47.4,30.08,NNE,20,6.9,6.9,100,0.00,OVC,,0.00,WeatherDisplay:10.37,2013-01-14 18:32:00,
2013-01-14 13:37:00,47.7,47.7,30.08,NE,47,6.9,6.9,100,0.00,OVC,,0.00,WeatherDisplay:10.37,2013-01-14 18:37:00,
2013-01-14 13:42:00,48.0,48.0,30.08,North,360,5.8,5.8,100,0.00,OVC,,0.00,WeatherDisplay:10.37,2013-01-14 18:42:00,
2013-01-14 13:47:00,48.0,48.0,30.08,NE,40,9.2,9.2,100,0.00,OVC,,0.00,WeatherDisplay:10.37,2013-01-14 18:47:00,
2013-01-14 13:52:00,48.1,48.1,30.08,NNE,14,8.1,8.1,100,0.00,OVC,,0.00,WeatherDisplay:10.37,2013-01-14 18:52:00,
2013-01-14 13:57:00,48.3,48.3,30.07,North,1,11.5,11.5,100,0.00,OVC,,0.00,WeatherDisplay:10.37,2013-01-14 18:57:00,
2013-01-14 14:02:00,49.0,49.0,30.08,NE,37,3.5,3.5,100,0.00,OVC,,0.00,WeatherDisplay:10.37,2013-01-14 19:02:00,
2013-01-14 14:07:00,49.2,48.7,30.08,NE,42,5.8,5.8,98,0.00,OVC,,0.00,WeatherDisplay:10.37,2013-01-14 19:07:00,
2013-01-14 14:12:00,49.4,48.6,30.08,NE,48,6.1,6.1,97,0.00,OVC,,0.00,WeatherDisplay:10.37,2013-01-14 19:12:00,
2013-01-14 14:17:00,49.3,48.0,30.08,NW,322,8.1,8.1,95,0.00,OVC,,0.00,WeatherDisplay:10.37,2013-01-14 19:17:00,
2013-01-14 14:22:00,49.4,48.1,30.08,NE,56,3.5,3.5,95,0.00,OVC,,0.00,WeatherDisplay:10.37,2013-01-14 19:22:00,
2013-01-14 14:27:00,49.4,46.6,30.09,WSW,246,5.8,5.8,90,0.00,OVC,,0.00,WeatherDisplay:10.37,2013-01-14 19:27:00,
2013-01-14 14:32:00,49.4,46.9,30.09,ENE,68,3.5,3.5,91,0.00,OVC,,0.00,WeatherDisplay:10.37,2013-01-14 19:32:00,
2013-01-14 14:37:00,49.3,44.4,30.11,NE,52,11.5,11.5,83,0.00,OVC,,0.00,WeatherDisplay:10.37,2013-01-14 19:37:00,
2013-01-14 14:42:00,49.1,45.1,30.11,NE,38,11.6,11.6,86,0.00,OVC,,0.00,WeatherDisplay:10.37,2013-01-14 19:42:00,
2013-01-14 14:47:00,48.9,44.0,30.11,North,8,8.1,8.1,83,0.00,OVC,,0.00,WeatherDisplay:10.37,2013-01-14 19:47:00,
2013-01-14 14:52:00,48.7,43.5,30.11,NNE,18,11.7,11.7,82,0.00,OVC,,0.00,WeatherDisplay:10.37,2013-01-14 19:52:00,
2013-01-14 14:57:00,48.4,42.6,30.12,NNE,18,11.5,11.5,80,0.00,OVC,,0.00,WeatherDisplay:10.37,2013-01-14 19:57:00,
2013-01-14 15:02:00,48.1,41.6,30.11,NNE,17,9.2,9.2,78,0.00,BKN,,0.00,WeatherDisplay:10.37,2013-01-14 20:02:00,
2013-01-14 15:07:00,47.8,41.6,30.12,ENE,59,9.2,9.2,79,0.00,BKN,,0.00,WeatherDisplay:10.37,2013-01-14 20:07:00,
2013-01-14 15:12:00,47.4,40.6,30.12,NE,48,10.4,10.4,77,0.00,BKN,,0.00,WeatherDisplay:10.37,2013-01-14 20:12:00,
2013-01-14 15:17:00,47.2,40.1,30.13,NE,54,5.8,5.8,76,0.00,BKN,,0.00,WeatherDisplay:10.37,2013-01-14 20:17:00,
2013-01-14 15:22:00,46.9,40.4,30.14,NE,44,3.5,3.5,78,0.00,BKN,,0.00,WeatherDisplay:10.37,2013-01-14 20:22:00,
2013-01-14 15:27:00,46.5,39.4,30.13,NE,35,13.8,13.8,76,0.00,BKN,,0.00,WeatherDisplay:10.37,2013-01-14 20:27:00,
2013-01-14 15:32:00,46.0,39.2,30.13,North,359,10.4,10.4,77,0.00,BKN,,0.00,WeatherDisplay:10.37,2013-01-14 20:32:00,
2013-01-14 15:37:00,45.6,38.5,30.13,NE,51,7.8,7.8,76,0.00,BKN,,0.00,WeatherDisplay:10.37,2013-01-14 20:37:00,
2013-01-14 15:42:00,45.1,37.3,30.13,NE,47,12.7,12.7,74,0.00,BKN,,0.00,WeatherDisplay:10.37,2013-01-14 20:42:00,
2013-01-14 15:47:00,44.9,37.5,30.13,NE,34,11.5,11.5,75,0.00,BKN,,0.00,WeatherDisplay:10.37,2013-01-14 20:47:00,
2013-01-14 15:52:00,44.7,38.3,30.13,NNW,343,6.9,6.9,78,0.00,BKN,,0.00,WeatherDisplay:10.37,2013-01-14 20:52:00,
2013-01-14 15:57:00,44.6,37.5,30.14,NE,34,10.4,10.4,76,0.00,BKN,,0.00,WeatherDisplay:10.37,2013-01-14 20:57:00,
2013-01-14 16:02:00,44.4,36.3,30.15,NE,34,9.2,9.2,73,0.00,BKN,,0.00,WeatherDisplay:10.37,2013-01-14 21:02:00,
2013-01-14 16:07:00,44.1,36.7,30.15,NNE,32,5.8,5.8,75,0.00,BKN,,0.00,WeatherDisplay:10.37,2013-01-14 21:07:00,
2013-01-14 16:12:00,44.0,36.6,30.15,NNE,25,9.2,9.2,75,0.00,BKN,,0.00,WeatherDisplay:10.37,2013-01-14 21:12:00,
2013-01-14 16:17:00,43.8,36.8,30.15,NNE,27,4.1,4.1,76,0.00,CLR,,0.00,WeatherDisplay:10.37,2013-01-14 21:17:00,
2013-01-14 16:23:00,43.6,36.6,30.15,NNE,17,4.6,4.6,76,0.00,CLR,,0.00,WeatherDisplay:10.37,2013-01-14 21:23:00,
2013-01-14 16:27:00,43.3,35.9,30.17,NNW,328,6.9,6.9,75,0.00,CLR,,0.00,WeatherDisplay:10.37,2013-01-14 21:27:00,
2013-01-14 16:32:00,42.9,34.9,30.17,North,7,6.7,6.7,73,0.00,CLR,,0.00,WeatherDisplay:10.37,2013-01-14 21:32:00,
2013-01-14 16:37:00,43.0,34.6,30.16,NE,42,5.8,5.8,72,0.00,CLR,,0.00,WeatherDisplay:10.37,2013-01-14 21:37:00,
2013-01-14 16:42:00,42.6,34.9,30.16,NE,48,4.6,4.6,74,0.00,CLR,,0.00,WeatherDisplay:10.37,2013-01-14 21:42:00,
2013-01-14 16:47:00,42.6,34.6,30.16,NNE,28,6.9,6.9,73,0.00,CLR,,0.00,WeatherDisplay:10.37,2013-01-14 21:47:00,
2013-01-14 16:52:00,42.3,34.6,30.16,ENE,69,0.0,0.0,74,0.00,CLR,,0.00,WeatherDisplay:10.37,2013-01-14 21:52:00,
2013-01-14 16:57:00,41.8,33.8,30.17,NNE,16,4.6,4.6,73,0.00,CLR,,0.00,WeatherDisplay:10.37,2013-01-14 21:57:00,
2013-01-14 17:02:00,41.9,33.6,30.16,North,10,5.8,5.8,72,0.00,CLR,,0.00,WeatherDisplay:10.37,2013-01-14 22:02:00,
2013-01-14 17:07:00,41.7,33.4,30.15,North,350,9.5,9.5,72,0.00,CLR,,0.00,WeatherDisplay:10.37,2013-01-14 22:07:00,
2013-01-14 17:12:00,41.3,32.6,30.16,NE,49,4.6,4.6,71,0.00,CLR,,0.00,WeatherDisplay:10.37,2013-01-14 22:12:00,
2013-01-14 17:17:00,41.5,32.8,30.16,NNE,21,3.5,3.5,71,0.00,CLR,,0.00,WeatherDisplay:10.37,2013-01-14 22:17:00,
2013-01-14 17:22:00,41.2,32.5,30.16,NNE,21,5.8,5.8,71,0.00,CLR,,0.00,WeatherDisplay:10.37,2013-01-14 22:22:00,
2013-01-14 17:27:00,41.1,32.4,30.16,NW,312,3.5,3.5,71,0.00,CLR,,0.00,WeatherDisplay:10.37,2013-01-14 22:27:00,
2013-01-14 17:32:00,40.9,32.3,30.17,NW,320,0.0,0.0,71,0.00,CLR,,0.00,WeatherDisplay:10.37,2013-01-14 22:32:00,
2013-01-14 17:37:00,40.7,31.7,30.16,North,360,6.9,6.9,70,0.00,CLR,,0.00,WeatherDisplay:10.37,2013-01-14 22:37:00,
2013-01-14 17:42:00,40.5,31.2,30.16,North,3,11.5,11.5,69,0.00,CLR,,0.00,WeatherDisplay:10.37,2013-01-14 22:42:00,
2013-01-14 17:48:00,40.5,31.2,30.16,ENE,59,3.5,3.5,69,0.00,CLR,,0.00,WeatherDisplay:10.37,2013-01-14 22:48:00,
2013-01-14 17:53:00,40.7,31.7,30.17,NNE,31,0.0,0.0,70,0.00,CLR,,0.00,WeatherDisplay:10.37,2013-01-14 22:53:00,
2013-01-14 17:58:00,40.5,31.5,30.18,West,261,0.0,0.0,70,0.00,CLR,,0.00,WeatherDisplay:10.37,2013-01-14 22:58:00,
2013-01-14 18:03:00,40.2,31.2,30.17,NNE,13,8.1,8.1,70,0.00,CLR,,0.00,WeatherDisplay:10.37,2013-01-14 23:03:00,
2013-01-14 18:08:00,40.1,30.8,30.17,ENE,61,11.5,11.5,69,0.00,CLR,,0.00,WeatherDisplay:10.37,2013-01-14 23:08:00,
2013-01-14 18:13:00,40.0,30.7,30.17,NNE,18,8.1,8.1,69,0.00,CLR,,0.00,WeatherDisplay:10.37,2013-01-14 23:13:00,
2013-01-14 18:18:00,40.1,31.5,30.17,North,357,6.9,6.9,71,0.00,BKN,,0.00,WeatherDisplay:10.37,2013-01-14 23:18:00,
2013-01-14 18:23:00,39.8,30.8,30.19,North,356,4.6,4.6,70,0.00,BKN,,0.00,WeatherDisplay:10.37,2013-01-14 23:23:00,
2013-01-14 18:28:00,39.7,31.1,30.19,North,356,0.0,0.0,71,0.00,BKN,,0.00,WeatherDisplay:10.37,2013-01-14 23:28:00,
2013-01-14 18:33:00,39.7,30.8,30.19,North,10,0.0,0.0,70,0.00,BKN,,0.00,WeatherDisplay:10.37,2013-01-14 23:33:00,
2013-01-14 18:39:00,39.7,30.4,30.19,NNE,28,3.5,3.5,69,0.00,BKN,,0.00,WeatherDisplay:10.37,2013-01-14 23:39:00,
2013-01-14 18:44:00,39.2,29.6,30.18,East,82,3.5,3.5,68,0.00,BKN,,0.00,WeatherDisplay:10.37,2013-01-14 23:44:00,
2013-01-14 18:49:00,39.1,29.8,30.20,NE,34,0.0,0.0,69,0.00,BKN,,0.00,WeatherDisplay:10.37,2013-01-14 23:49:00,
2013-01-14 18:54:00,39.0,30.1,30.20,North,352,0.0,0.0,70,0.00,BKN,,0.00,WeatherDisplay:10.37,2013-01-14 23:54:00,
2013-01-14 18:59:00,38.9,29.3,30.21,North,0,2.0,2.0,68,0.00,BKN,,0.00,WeatherDisplay:10.37,2013-01-14 23:59:00,
2013-01-14 19:04:00,38.8,29.2,30.22,NE,42,4.6,4.6,68,0.00,BKN,,0.00,WeatherDisplay:10.37,2013-01-15 00:04:00,
2013-01-14 19:09:00,38.6,28.6,30.21,NNE,32,6.9,6.9,67,0.00,BKN,,0.00,WeatherDisplay:10.37,2013-01-15 00:09:00,
2013-01-14 19:14:00,38.4,29.2,30.22,NE,37,8.1,8.1,69,0.00,BKN,,0.00,WeatherDisplay:10.37,2013-01-15 00:14:00,
2013-01-14 19:19:00,38.5,28.9,30.22,NE,51,5.8,5.8,68,0.00,OVC,,0.00,WeatherDisplay:10.37,2013-01-15 00:19:00,
2013-01-14 19:24:00,38.2,28.6,30.23,NNE,25,6.9,6.9,68,0.00,OVC,,0.00,WeatherDisplay:10.37,2013-01-15 00:24:00,
2013-01-14 19:29:00,38.1,28.9,30.24,ENE,66,4.6,4.6,69,0.00,OVC,,0.00,WeatherDisplay:10.37,2013-01-15 00:29:00,
2013-01-14 19:34:00,37.9,28.3,30.24,NE,34,6.9,6.9,68,0.00,OVC,,0.00,WeatherDisplay:10.37,2013-01-15 00:34:00,
2013-01-14 19:39:00,37.8,28.6,30.24,ENE,68,7.3,7.3,69,0.00,OVC,,0.00,WeatherDisplay:10.37,2013-01-15 00:39:00,
2013-01-14 19:44:00,37.7,28.5,30.25,ENE,69,4.6,4.6,69,0.00,OVC,,0.00,WeatherDisplay:10.37,2013-01-15 00:44:00,
2013-01-14 19:49:00,37.7,28.5,30.24,NE,47,9.2,9.2,69,0.00,OVC,,0.00,WeatherDisplay:10.37,2013-01-15 00:49:00,
2013-01-14 19:54:00,37.4,28.2,30.25,ENE,59,4.6,4.6,69,0.00,OVC,,0.00,WeatherDisplay:10.37,2013-01-15 00:54:00,
2013-01-14 19:59:00,37.5,27.9,30.25,North,1,7.1,7.1,68,0.00,OVC,,0.00,WeatherDisplay:10.37,2013-01-15 00:59:00,
2013-01-14 20:04:00,37.2,28.0,30.26,NE,38,4.6,4.6,69,0.00,OVC,,0.00,WeatherDisplay:10.37,2013-01-15 01:04:00,
2013-01-14 20:09:00,37.0,27.8,30.26,ENE,61,5.8,5.8,69,0.00,OVC,,0.00,WeatherDisplay:10.37,2013-01-15 01:09:00,
2013-01-14 20:14:00,36.9,27.7,30.27,ENE,73,5.8,5.8,69,0.00,OVC,,0.00,WeatherDisplay:10.37,2013-01-15 01:14:00,
2013-01-14 20:19:00,37.2,28.0,30.25,NW,319,10.3,10.3,69,0.00,OVC,,0.00,WeatherDisplay:10.37,2013-01-15 01:19:00,
2013-01-14 20:24:00,36.8,27.3,30.26,NNE,30,5.8,5.8,68,0.00,OVC,,0.00,WeatherDisplay:10.37,2013-01-15 01:24:00,
2013-01-14 20:29:00,36.8,27.6,30.26,NNE,18,3.5,3.5,69,0.00,OVC,,0.00,WeatherDisplay:10.37,2013-01-15 01:29:00,
2013-01-14 20:34:00,36.8,27.6,30.27,North,11,6.9,6.9,69,0.00,OVC,,0.00,WeatherDisplay:10.37,2013-01-15 01:34:00,
2013-01-14 20:39:00,36.7,27.2,30.26,NNW,347,8.2,8.2,68,0.00,OVC,,0.00,WeatherDisplay:10.37,2013-01-15 01:39:00,
2013-01-14 20:44:00,36.3,26.8,30.26,NNE,23,6.9,6.9,68,0.00,OVC,,0.00,WeatherDisplay:10.37,2013-01-15 01:44:00,
2013-01-14 20:49:00,36.0,26.5,30.26,North,360,7.3,7.3,68,0.00,OVC,,0.00,WeatherDisplay:10.37,2013-01-15 01:49:00,
2013-01-14 20:54:00,36.4,27.2,30.27,North,359,3.7,3.7,69,0.00,OVC,,0.00,WeatherDisplay:10.37,2013-01-15 01:54:00,
2013-01-14 20:59:00,36.1,26.9,30.26,NNE,28,3.8,3.8,69,0.00,OVC,,0.00,WeatherDisplay:10.37,2013-01-15 01:59:00,
2013-01-14 21:04:00,36.3,26.8,30.26,ENE,58,5.2,5.2,68,0.00,-RA,,0.00,WeatherDisplay:10.37,2013-01-15 02:04:00,
2013-01-14 21:09:00,36.3,27.1,30.26,NE,52,6.9,6.9,69,0.00,-RA,,0.00,WeatherDisplay:10.37,2013-01-15 02:09:00,
2013-01-14 21:14:00,36.0,26.8,30.26,NE,54,4.6,4.6,69,0.00,-RA,,0.00,WeatherDisplay:10.37,2013-01-15 02:14:00,
2013-01-14 21:19:00,36.0,26.5,30.23,NE,37,9.2,9.2,68,0.00,-RA,,0.00,WeatherDisplay:10.37,2013-01-15 02:19:00,
2013-01-14 21:24:00,35.8,26.7,30.26,North,1,4.8,4.8,69,0.00,-RA,,0.00,WeatherDisplay:10.37,2013-01-15 02:24:00,
2013-01-14 21:29:00,35.6,26.8,30.25,NE,52,6.3,6.3,70,0.00,-RA,,0.00,WeatherDisplay:10.37,2013-01-15 02:29:00,
2013-01-14 21:34:00,35.9,26.8,30.27,NE,38,13.8,13.8,69,0.00,-RA,,0.00,WeatherDisplay:10.37,2013-01-15 02:34:00,
2013-01-14 21:39:00,35.5,26.4,30.27,NNW,328,8.1,8.1,69,0.00,-RA,,0.00,WeatherDisplay:10.37,2013-01-15 02:39:00,
2013-01-14 21:44:00,35.9,26.8,30.28,ENE,65,3.8,4.0,69,0.00,-RA,,0.00,WeatherDisplay:10.37,2013-01-15 02:44:00,
2013-01-14 21:49:00,35.6,26.5,30.27,NE,47,8.1,8.1,69,0.00,-RA,,0.00,WeatherDisplay:10.37,2013-01-15 02:49:00,
2013-01-14 21:54:00,35.3,26.2,30.27,NE,56,9.2,9.2,69,0.00,-RA,,0.00,WeatherDisplay:10.37,2013-01-15 02:54:00,
2013-01-14 21:59:00,35.5,26.7,30.29,South,191,3.5,3.5,70,0.00,-RA,,0.00,WeatherDisplay:10.37,2013-01-15 02:59:00,
2013-01-14 22:04:00,35.5,26.4,30.29,North,1,10.4,10.4,69,0.00,-RA,,0.00,WeatherDisplay:10.37,2013-01-15 03:04:00,
2013-01-14 22:09:00,35.5,26.4,30.29,NNE,32,2.3,3.0,69,0.00,-RA,,0.00,WeatherDisplay:10.37,2013-01-15 03:09:00,
2013-01-14 22:14:00,35.6,26.8,30.30,NNW,335,2.3,2.3,70,0.00,-RA,,0.00,WeatherDisplay:10.37,2013-01-15 03:14:00,
2013-01-14 22:19:00,35.5,26.7,30.30,NE,38,4.6,4.6,70,0.00,-RA,,0.00,WeatherDisplay:10.37,2013-01-15 03:19:00,
2013-01-14 22:24:00,35.5,26.4,30.28,ENE,59,5.8,5.8,69,0.00,-RA,,0.00,WeatherDisplay:10.37,2013-01-15 03:24:00,
2013-01-14 22:29:00,35.5,26.0,30.28,NE,52,3.5,3.5,68,0.00,-RA,,0.00,WeatherDisplay:10.37,2013-01-15 03:29:00,
2013-01-14 22:34:00,35.2,26.1,30.29,NE,37,4.6,4.6,69,0.00,-RA,,0.00,WeatherDisplay:10.37,2013-01-15 03:34:00,
2013-01-14 22:39:00,35.1,26.3,30.28,ENE,64,3.5,3.5,70,0.00,-RA,,0.00,WeatherDisplay:10.37,2013-01-15 03:39:00,
2013-01-14 22:44:00,35.2,26.1,30.28,NNE,25,5.0,5.0,69,0.00,-RA,,0.00,WeatherDisplay:10.37,2013-01-15 03:44:00,
2013-01-14 22:49:00,35.2,26.1,30.27,ENE,69,4.6,4.6,69,0.00,-RA,,0.00,WeatherDisplay:10.37,2013-01-15 03:49:00,
2013-01-14 22:54:00,35.2,26.1,30.26,North,0,6.9,6.9,69,0.00,-RA,,0.00,WeatherDisplay:10.37,2013-01-15 03:54:00,
2013-01-14 22:59:00,34.9,26.1,30.28,North,10,5.8,5.8,70,0.00,-RA,,0.00,WeatherDisplay:10.37,2013-01-15 03:59:00,
2013-01-14 23:04:00,35.2,26.4,30.28,North,0,4.6,4.6,70,0.00,-RA,,0.00,WeatherDisplay:10.37,2013-01-15 04:04:00,
2013-01-14 23:09:00,34.7,26.0,30.27,NNE,21,4.6,4.6,70,0.00,-RA,,0.00,WeatherDisplay:10.37,2013-01-15 04:09:00,
2013-01-14 23:14:00,35.1,26.7,30.28,North,8,6.9,6.9,71,0.00,-RA,,0.00,WeatherDisplay:10.37,2013-01-15 04:14:00,
2013-01-14 23:19:00,35.1,26.3,30.29,North,8,4.6,4.6,70,0.00,-RA,,0.00,WeatherDisplay:10.37,2013-01-15 04:19:00,
2013-01-14 23:24:00,34.8,26.4,30.27,ENE,72,4.6,4.6,71,0.00,-RA,,0.00,WeatherDisplay:10.37,2013-01-15 04:24:00,
2013-01-14 23:29:00,34.9,26.1,30.27,NE,52,6.9,6.9,70,0.00,-RA,,0.00,WeatherDisplay:10.37,2013-01-15 04:29:00,
2013-01-14 23:34:00,35.1,26.3,30.28,NNE,28,6.9,6.9,70,0.00,-RA,,0.00,WeatherDisplay:10.37,2013-01-15 04:34:00,
2013-01-14 23:39:00,34.8,26.4,30.28,NNW,328,4.6,4.6,71,0.00,-RA,,0.00,WeatherDisplay:10.37,2013-01-15 04:39:00,
2013-01-14 23:44:00,34.9,26.1,30.28,NNE,17,8.1,8.1,70,0.00,-RA,,0.00,WeatherDisplay:10.37,2013-01-15 04:44:00,
2013-01-14 23:49:00,34.7,26.3,30.29,NNW,329,2.3,2.3,71,0.00,-RA,,0.00,WeatherDisplay:10.37,2013-01-15 04:49:00,
2013-01-14 23:54:00,34.8,26.0,30.27,NE,41,4.6,4.6,70,0.00,-RA,,0.00,WeatherDisplay:10.37,2013-01-15 04:54:00,
2013-01-14 23:59:00,34.7,26.0,30.27,NNE,21,2.3,2.3,70,0.00,-RA,,0.00,WeatherDisplay:10.37,2013-01-15 04:59:00,